ETD156 OERK-OEDF

Flight info

Callsign ETD156
Flight time 0h 36m
Altitude 23000
Route EGPIN H744 ITUNI N687 MIBRA
Aircraft A321/M-SDE3FGHIRWY/LB1

Departure

Time 2026-04-23 08:28
Airport King Khalid International Airport (OERK)

Arrival

Time 2026-04-23 09:05
Airport King Fahd International Airport (OEDF)
Time Latitude Longitude Altitude Speed Heading
2026-04-23 08:04 24.95954 46.68768 2037 ft 0 kts 239°
2026-04-23 08:16 24.95956 46.68771 2039 ft 3 kts 239°
2026-04-23 08:17 24.95969 46.68795 2037 ft 4 kts 239°
2026-04-23 08:17 24.95982 46.68821 2033 ft 3 kts 239°
2026-04-23 08:17 24.95994 46.68840 2038 ft 4 kts 216°
2026-04-23 08:17 24.96015 46.68847 2036 ft 4 kts 161°
2026-04-23 08:18 24.96037 46.68835 2037 ft 4 kts 149°
2026-04-23 08:18 24.96047 46.68829 2038 ft 0 kts 149°
2026-04-23 08:20 24.96045 46.68828 2038 ft 1 kts 162°
2026-04-23 08:20 24.96036 46.68835 2036 ft 1 kts 115°
2026-04-23 08:20 24.96045 46.68838 2037 ft 1 kts
2026-04-23 08:21 24.96046 46.68828 2038 ft 1 kts 267°
2026-04-23 08:21 24.96038 46.68828 2038 ft 1 kts 183°
2026-04-23 08:21 24.96024 46.68841 2033 ft 5 kts 144°
2026-04-23 08:21 24.95976 46.68874 2033 ft 11 kts 150°
2026-04-23 08:22 24.95892 46.68926 2035 ft 16 kts 150°
2026-04-23 08:22 24.95779 46.68999 2029 ft 21 kts 149°
2026-04-23 08:22 24.95719 46.69037 2034 ft 14 kts 151°
2026-04-23 08:22 24.95631 46.69000 2032 ft 18 kts 237°
2026-04-23 08:23 24.95557 46.68836 2031 ft 16 kts 270°
2026-04-23 08:23 24.95607 46.68773 2031 ft 19 kts 329°
2026-04-23 08:23 24.95737 46.68691 2033 ft 24 kts 330°
2026-04-23 08:23 24.95899 46.68589 2032 ft 29 kts 330°
2026-04-23 08:24 24.96088 46.68469 2032 ft 34 kts 330°
2026-04-23 08:24 24.96306 46.68332 2028 ft 38 kts 330°
2026-04-23 08:24 24.96547 46.68179 2035 ft 42 kts 330°
2026-04-23 08:24 24.96807 46.68014 2031 ft 45 kts 329°
2026-04-23 08:25 24.97041 46.67867 2029 ft 23 kts 330°
2026-04-23 08:25 24.97156 46.67795 2030 ft 0 kts 330°
2026-04-23 08:25 24.97161 46.67791 2032 ft 3 kts 325°
2026-04-23 08:25 24.97185 46.67757 2028 ft 8 kts 295°
2026-04-23 08:26 24.97172 46.67687 2034 ft 13 kts 234°
2026-04-23 08:26 24.97123 46.67585 2034 ft 16 kts 238°
2026-04-23 08:26 24.97089 46.67534 2034 ft 10 kts 218°
2026-04-23 08:26 24.97014 46.67544 2034 ft 14 kts 151°
2026-04-23 08:27 24.96916 46.67604 2030 ft 19 kts 150°
2026-04-23 08:27 24.96685 46.67752 2036 ft 66 kts 150°
2026-04-23 08:27 24.96136 46.68105 2028 ft 119 kts 149°
2026-04-23 08:27 24.95269 46.68651 2030 ft 168 kts 150°
2026-04-23 08:28 24.94200 46.69304 2409 ft 179 kts 152°
2026-04-23 08:28 24.93072 46.69867 3064 ft 180 kts 155°
2026-04-23 08:28 24.91877 46.70283 3639 ft 180 kts 159°
2026-04-23 08:28 24.90628 46.70678 3897 ft 195 kts 159°
2026-04-23 08:29 24.89254 46.71109 4009 ft 215 kts 160°
2026-04-23 08:29 24.87734 46.71582 4133 ft 240 kts 161°
2026-04-23 08:29 24.86073 46.72101 4467 ft 258 kts 161°
2026-04-23 08:29 24.84361 46.72633 5248 ft 255 kts 162°
2026-04-23 08:30 24.82821 46.73532 5972 ft 259 kts 136°
2026-04-23 08:30 24.81947 46.75300 6536 ft 275 kts 104°
2026-04-23 08:30 24.81898 46.77428 7055 ft 288 kts 89°
2026-04-23 08:30 24.82039 46.78734 7358 ft 294 kts 85°
2026-04-23 08:31 24.82084 46.79042 7415 ft 295 kts 84°
2026-04-23 08:31 24.82370 46.80482 7761 ft 301 kts 76°
2026-04-23 08:31 24.83247 46.82611 8324 ft 310 kts 60°
2026-04-23 08:31 24.84398 46.84355 8842 ft 316 kts 51°
2026-04-23 08:32 24.85616 46.86037 9307 ft 321 kts 52°
2026-04-23 08:32 24.86922 46.87927 9843 ft 326 kts 53°
2026-04-23 08:32 24.87612 46.88932 10069 ft 326 kts 49°
2026-04-23 08:32 24.88859 46.90546 10319 ft 338 kts 50°
2026-04-23 08:33 24.88912 46.90618 10319 ft 339 kts 51°
2026-04-23 08:33 24.89658 46.91642 10378 ft 348 kts 52°
2026-04-23 08:33 24.91149 46.93830 10507 ft 368 kts 54°
2026-04-23 08:34 24.92677 46.96181 10675 ft 385 kts 54°
2026-04-23 08:34 24.94033 46.98284 11046 ft 391 kts 54°
2026-04-23 08:34 24.95627 47.00730 11553 ft 395 kts 54°
2026-04-23 08:34 24.97092 47.02939 12027 ft 398 kts 53°
2026-04-23 08:35 24.98763 47.05410 12569 ft 401 kts 53°
2026-04-23 08:35 25.00371 47.07757 13067 ft 405 kts 52°
2026-04-23 08:35 25.01793 47.09983 13524 ft 408 kts 59°
2026-04-23 08:35 25.03247 47.12618 14028 ft 412 kts 59°
2026-04-23 08:36 25.04684 47.15207 14480 ft 415 kts 58°
2026-04-23 08:36 25.05991 47.17552 14911 ft 417 kts 58°
2026-04-23 08:36 25.07491 47.20244 15409 ft 420 kts 58°
2026-04-23 08:36 25.08894 47.22762 15862 ft 422 kts 58°
2026-04-23 08:37 25.10352 47.25382 16332 ft 425 kts 58°
2026-04-23 08:37 25.11911 47.28185 16818 ft 429 kts 58°
2026-04-23 08:37 25.13473 47.30997 17317 ft 432 kts 58°
2026-04-23 08:37 25.15045 47.33831 17784 ft 435 kts 57°
2026-04-23 08:38 25.16631 47.36698 18264 ft 438 kts 57°
2026-04-23 08:38 25.18224 47.39576 18702 ft 441 kts 57°
2026-04-23 08:38 25.19837 47.42468 19118 ft 443 kts 54°
2026-04-23 08:38 25.21713 47.45165 19527 ft 444 kts 47°
2026-04-23 08:39 25.23710 47.47775 19979 ft 446 kts 47°
2026-04-23 08:39 25.25717 47.50400 20424 ft 448 kts 47°
2026-04-23 08:39 25.27732 47.53040 20867 ft 451 kts 47°
2026-04-23 08:39 25.29758 47.55697 21272 ft 454 kts 47°
2026-04-23 08:40 25.31796 47.58371 21689 ft 456 kts 46°
2026-04-23 08:40 25.33843 47.61059 22109 ft 458 kts 47°
2026-04-23 08:40 25.35900 47.63761 22491 ft 460 kts 47°
2026-04-23 08:40 25.37967 47.66479 22868 ft 463 kts 46°
2026-04-23 08:41 25.40012 47.69236 22993 ft 463 kts 51°
2026-04-23 08:41 25.41665 47.72277 23014 ft 462 kts 63°
2026-04-23 08:41 25.42964 47.75530 23014 ft 462 kts 65°
2026-04-23 08:41 25.44258 47.78787 23014 ft 462 kts 64°
2026-04-23 08:42 25.45562 47.82028 23008 ft 461 kts 64°
2026-04-23 08:42 25.46877 47.85263 23011 ft 461 kts 64°
2026-04-23 08:42 25.48199 47.88498 23013 ft 461 kts 64°
2026-04-23 08:42 25.49094 47.90686 23010 ft 461 kts 64°
2026-04-23 08:43 25.50845 47.94971 23005 ft 461 kts 64°
2026-04-23 08:43 25.51733 47.97149 23012 ft 461 kts 64°
2026-04-23 08:43 25.53052 48.00391 23015 ft 461 kts 64°
2026-04-23 08:43 25.54364 48.03625 23024 ft 461 kts 64°
2026-04-23 08:44 25.55680 48.06871 23017 ft 462 kts 64°
2026-04-23 08:44 25.56992 48.10117 23015 ft 462 kts 64°
2026-04-23 08:44 25.58300 48.13360 23013 ft 462 kts 64°
2026-04-23 08:44 25.59609 48.16604 23010 ft 462 kts 64°
2026-04-23 08:45 25.60921 48.19855 23008 ft 461 kts 64°
2026-04-23 08:45 25.62230 48.23098 23011 ft 461 kts 64°
2026-04-23 08:45 25.63543 48.26352 23009 ft 465 kts 64°
2026-04-23 08:45 25.64880 48.29665 23018 ft 478 kts 64°
2026-04-23 08:46 25.66248 48.33050 23011 ft 489 kts 64°
2026-04-23 08:46 25.67652 48.36527 23011 ft 500 kts 64°
2026-04-23 08:46 25.69244 48.40008 22772 ft 512 kts 56°
2026-04-23 08:46 25.71170 48.43372 22504 ft 519 kts 55°
2026-04-23 08:47 25.73109 48.46736 22240 ft 521 kts 55°
2026-04-23 08:47 25.75055 48.50120 22008 ft 520 kts 55°
2026-04-23 08:47 25.77018 48.53543 21748 ft 518 kts 55°
2026-04-23 08:47 25.78943 48.56912 21487 ft 516 kts 55°
2026-04-23 08:48 25.80859 48.60273 21236 ft 515 kts 56°
2026-04-23 08:48 25.82770 48.63624 20991 ft 513 kts 56°
2026-04-23 08:48 25.84676 48.66963 20754 ft 511 kts 56°
2026-04-23 08:48 25.86575 48.70285 20508 ft 509 kts 56°
2026-04-23 08:49 25.88465 48.73597 20277 ft 507 kts 56°
2026-04-23 08:49 25.90347 48.76900 20026 ft 505 kts 56°
2026-04-23 08:49 25.92224 48.80198 19799 ft 504 kts 56°
2026-04-23 08:49 25.94089 48.83487 19559 ft 502 kts 56°
2026-04-23 08:50 25.95951 48.86755 19326 ft 501 kts 55°
2026-04-23 08:50 25.97844 48.89996 19093 ft 499 kts 54°
2026-04-23 08:50 25.99753 48.93198 18799 ft 495 kts 54°
2026-04-23 08:50 26.01661 48.96360 18220 ft 489 kts 54°
2026-04-23 08:51 26.03561 48.99497 17965 ft 490 kts 54°
2026-04-23 08:51 26.05460 49.02645 17702 ft 490 kts 54°
2026-04-23 08:51 26.07347 49.05797 17419 ft 489 kts 55°
2026-04-23 08:51 26.09212 49.08936 16926 ft 483 kts 55°
2026-04-23 08:52 26.11030 49.12015 16714 ft 467 kts 55°
2026-04-23 08:52 26.12778 49.14988 16598 ft 452 kts 55°
2026-04-23 08:52 26.14468 49.17863 16454 ft 437 kts 55°
2026-04-23 08:52 26.16112 49.20651 16331 ft 423 kts 55°
2026-04-23 08:53 26.17712 49.23356 16010 ft 415 kts 55°
2026-04-23 08:53 26.19297 49.26028 15586 ft 412 kts 55°
2026-04-23 08:53 26.20854 49.28657 15389 ft 400 kts 55°
2026-04-23 08:53 26.22357 49.31207 15218 ft 389 kts 56°
2026-04-23 08:54 26.23852 49.33745 14852 ft 385 kts 56°
2026-04-23 08:54 26.25319 49.36234 14437 ft 383 kts 56°
2026-04-23 08:54 26.26759 49.38673 14045 ft 381 kts 56°
2026-04-23 08:54 26.28231 49.41165 13615 ft 379 kts 56°
2026-04-23 08:55 26.29675 49.43611 13164 ft 377 kts 56°
2026-04-23 08:55 26.31110 49.46048 12735 ft 375 kts 56°
2026-04-23 08:55 26.32531 49.48462 12405 ft 369 kts 56°
2026-04-23 08:55 26.33911 49.50814 12276 ft 357 kts 56°
2026-04-23 08:56 26.35076 49.53208 12048 ft 349 kts 73°
2026-04-23 08:56 26.35459 49.55686 11839 ft 339 kts 96°
2026-04-23 08:56 26.35071 49.58223 11608 ft 327 kts 118°
2026-04-23 08:56 26.34007 49.60387 11424 ft 313 kts 136°
2026-04-23 08:57 26.32694 49.62290 10958 ft 309 kts 136°
2026-04-23 08:57 26.31386 49.64178 10505 ft 306 kts 136°
2026-04-23 08:57 26.30090 49.66049 10006 ft 305 kts 136°
2026-04-23 08:57 26.28799 49.67917 9432 ft 303 kts 135°
2026-04-23 08:58 26.27495 49.69799 8614 ft 310 kts 133°
2026-04-23 08:58 26.26216 49.71653 8403 ft 293 kts 133°
2026-04-23 08:58 26.25280 49.73595 8286 ft 277 kts 112°
2026-04-23 08:58 26.25032 49.75655 7831 ft 267 kts 91°
2026-04-23 08:59 26.25413 49.77667 7140 ft 264 kts 76°
2026-04-23 08:59 26.25924 49.79604 6453 ft 255 kts 77°
2026-04-23 08:59 26.26411 49.81473 5946 ft 246 kts 75°
2026-04-23 08:59 26.27108 49.83129 5758 ft 224 kts 56°
2026-04-23 09:00 26.28113 49.84323 5610 ft 202 kts 39°
2026-04-23 09:00 26.29278 49.85102 5371 ft 190 kts 23°
2026-04-23 09:00 26.30520 49.85505 5029 ft 183 kts
2026-04-23 09:00 26.31765 49.85549 4745 ft 172 kts 353°
2026-04-23 09:01 26.32896 49.85293 4399 ft 166 kts 345°
2026-04-23 09:01 26.34007 49.84951 4046 ft 159 kts 347°
2026-04-23 09:01 26.35061 49.84626 3613 ft 154 kts 351°
2026-04-23 09:01 26.36086 49.84311 3170 ft 153 kts 351°
2026-04-23 09:02 26.37080 49.84004 2740 ft 144 kts 350°
2026-04-23 09:02 26.38030 49.83711 2230 ft 140 kts 350°
2026-04-23 09:02 26.38970 49.83422 2014 ft 140 kts 349°
2026-04-23 09:02 26.39922 49.83130 2013 ft 142 kts 349°
2026-04-23 09:03 26.40881 49.82834 1821 ft 145 kts 348°
2026-04-23 09:03 26.41854 49.82534 1316 ft 144 kts 347°
2026-04-23 09:03 26.42801 49.82242 835 ft 142 kts 345°
2026-04-23 09:03 26.43781 49.81939 416 ft 143 kts 348°
2026-04-23 09:04 26.44737 49.81649 261 ft 145 kts 346°
2026-04-23 09:04 26.45707 49.81343 118 ft 144 kts 346°
2026-04-23 09:04 26.46572 49.81077 90 ft 108 kts 341°
2026-04-23 09:04 26.47131 49.80907 86 ft 58 kts 343°
2026-04-23 09:05 26.47267 49.80862 86 ft 0 kts 343°
2026-04-23 09:05 26.47279 49.80857 87 ft 5 kts 343°
2026-04-23 09:05 26.47337 49.80839 87 ft 12 kts 342°
2026-04-23 09:05 26.47440 49.80808 86 ft 19 kts 344°
2026-04-23 09:06 26.47576 49.80744 86 ft 24 kts 326°
2026-04-23 09:06 26.47717 49.80605 86 ft 30 kts 314°
2026-04-23 09:06 26.47791 49.80520 85 ft 16 kts 314°
2026-04-23 09:06 26.47807 49.80502 90 ft 4 kts 314°
2026-04-23 09:07 26.47840 49.80453 87 ft 12 kts 290°
2026-04-23 09:07 26.47827 49.80339 88 ft 19 kts 252°
2026-04-23 09:07 26.47788 49.80172 89 ft 26 kts 255°
2026-04-23 09:07 26.47737 49.79958 92 ft 30 kts 256°
2026-04-23 09:08 26.47678 49.79729 95 ft 34 kts 253°
2026-04-23 09:08 26.47609 49.79444 93 ft 41 kts 256°
2026-04-23 09:08 26.47535 49.79163 86 ft 23 kts 246°
2026-04-23 09:08 26.47401 49.79142 89 ft 20 kts 167°
2026-04-23 09:09 26.47301 49.79178 89 ft 0 kts 156°
2026-04-23 09:09 26.47279 49.79190 87 ft 7 kts 152°
2026-04-23 09:09 26.47316 49.79274 88 ft 0 kts 65°